New Bedford, MA

10:58 PM EDT on April 26, 2017 (GMT -0400)
New Bedford Regional

Weather History for KEWB - February, 2014

Change the Weather History Date:

Monday, February 24, 2014

  Actual Average Record
Temperature  
Mean Temperature 34 °F -  
Max Temperature 42 °F 40 °F 68 °F (2017)
Min Temperature 24 °F 26 °F -6 °F (2015)
Degree Days  
Heating Degree Days 32    
Moisture  
Dew Point 15 °F    
Average Humidity 49    
Maximum Humidity 86    
Minimum Humidity 32    
Precipitation  
Precipitation 0.00 in - - ()
Sea Level Pressure  
Sea Level Pressure 29.81 in    
Wind  
Wind Speed 8 mph (WNW)    
Max Wind Speed 22 mph    
Max Gust Speed 32 mph    
Visibility 10 miles    
Events Rain    
Averages and records for this station are not official NWS values.
T = Trace of Precipitation, MM = Missing Value Source: NWS Daily Summary

Daily Weather History Graph

Daily Weather History Graph

Search for Another Location

Airport or City:

Trip Planner

Search our weather history database for the weather conditions in past years. The results will help you decide how hot, cold, wet, or windy it might be!

Date:

Astronomy

Feb. 24, 2014 Rise Set
Actual Time 6:26 AM EST 5:28 PM EST
Civil Twilight 5:58 AM EST 5:56 PM EST
Nautical Twilight 5:26 AM EST 6:28 PM EST
Astronomical Twilight 4:53 AM EST 7:00 PM EST
Moon 2:24 AM EST (2/24) 12:23 PM EST (2/24)
Length of Visible Light 11h 58m
Length of Day
11h 01m
Waning Crescent, 28% of the Moon is Illuminated
Feb 24
Waning Crescent
Mar 1
New
Mar 8
First Quarter
Mar 16
Full
Mar 23
Last Quarter

Hourly Weather History & Observations

Time (EST) Temp. Windchill Dew Point Humidity Pressure Visibility Wind Dir Wind Speed Gust Speed Precip Events Conditions
12:53 AM 36.0 °F - 30.9 °F 82% 29.76 in 10.0 mi Calm Calm - N/A   Overcast
1:53 AM 36.0 °F 33.3 °F 30.9 °F 82% 29.75 in 10.0 mi WSW 3.5 mph - N/A   Overcast
2:53 AM 42.1 °F 37.7 °F 30.0 °F 62% 29.75 in 10.0 mi West 6.9 mph - 0.00 in Rain Light Rain
3:53 AM 39.0 °F - 34.0 °F 82% 29.75 in 10.0 mi Calm Calm - 0.00 in Rain Light Rain
4:53 AM 37.9 °F 33.5 °F 34.0 °F 86% 29.77 in 10.0 mi WSW 5.8 mph - 0.00 in   Overcast
5:17 AM 37.9 °F 33.5 °F 34.0 °F 86% 29.77 in 10.0 mi West 5.8 mph - N/A   Overcast
5:44 AM 39.0 °F 35.7 °F 28.9 °F 67% 29.77 in 10.0 mi WNW 4.6 mph - N/A   Overcast
5:53 AM 37.9 °F 33.5 °F 27.0 °F 65% 29.78 in 10.0 mi WNW 5.8 mph - N/A   Overcast
6:53 AM 37.0 °F 32.4 °F 14.0 °F 39% 29.78 in 10.0 mi WNW 5.8 mph - N/A   Overcast
7:53 AM 35.1 °F 28.6 °F 12.9 °F 40% 29.80 in 10.0 mi NW 8.1 mph - N/A   Partly Cloudy
8:53 AM 36.0 °F 28.0 °F 12.0 °F 37% 29.80 in 10.0 mi WNW 11.5 mph 19.6 mph N/A   Clear
9:53 AM 37.9 °F 27.9 °F 10.9 °F 33% 29.78 in 10.0 mi West 19.6 mph 23.0 mph N/A   Clear
10:53 AM 37.9 °F 29.6 °F 10.0 °F 32% 29.78 in 10.0 mi West 13.8 mph 24.2 mph N/A   Clear
11:53 AM 37.9 °F 28.9 °F 12.0 °F 35% 29.76 in 10.0 mi West 16.1 mph 21.9 mph N/A   Clear
12:53 PM 37.9 °F 30.5 °F 10.0 °F 32% 29.74 in 10.0 mi WNW 11.5 mph 27.6 mph N/A   Scattered Clouds
1:53 PM 35.1 °F 25.5 °F 10.0 °F 35% 29.74 in 10.0 mi West 15.0 mph 29.9 mph N/A   Scattered Clouds
2:53 PM 35.1 °F 23.5 °F 9.0 °F 34% 29.75 in 10.0 mi West 21.9 mph 28.8 mph N/A   Mostly Cloudy
3:53 PM 34.0 °F 23.0 °F 7.0 °F 32% 29.77 in 10.0 mi West 18.4 mph 25.3 mph N/A   Partly Cloudy
4:53 PM 30.9 °F 19.1 °F 3.9 °F 32% 29.81 in 10.0 mi WNW 18.4 mph 28.8 mph N/A   Clear
5:53 PM 30.0 °F 18.7 °F 3.9 °F 33% 29.85 in 10.0 mi WNW 16.1 mph 20.7 mph N/A   Partly Cloudy
6:53 PM 28.9 °F 16.9 °F 6.1 °F 38% 29.88 in 10.0 mi WNW 17.3 mph 26.5 mph N/A   Clear
7:53 PM 28.0 °F 18.1 °F 7.0 °F 41% 29.91 in 10.0 mi WNW 11.5 mph 21.9 mph N/A   Clear
8:53 PM 27.0 °F 15.6 °F 9.0 °F 47% 29.94 in 10.0 mi West 13.8 mph - N/A   Clear
9:53 PM 26.1 °F 14.0 °F 3.0 °F 37% 29.95 in 10.0 mi WNW 15.0 mph 32.2 mph N/A   Clear
10:53 PM 25.0 °F 11.7 °F 5.0 °F 43% 29.96 in 10.0 mi WNW 17.3 mph 24.2 mph N/A   Clear
11:53 PM 24.1 °F 11.5 °F 5.0 °F 44% 29.96 in 10.0 mi WNW 15.0 mph 27.6 mph N/A   Clear